GKO82AC LBPD-EDAC

Flight info

Callsign GKO82AC
Flight time 2h 14m
Altitude 34000
Route RUMEN DCT ANASA DCT PARAK DCT VAMOG DCT TABEM DCT GAVLI
Aircraft B738/M-SDE2E3FGHIRWXY/LB1

Departure

Time 2026-04-12 19:43
Airport Plovdiv International Airport (LBPD)

Arrival

Time 2026-04-12 21:57
Airport Leipzig–Altenburg Airport (EDAC)
Time Latitude Longitude Altitude Speed Heading
2026-04-12 18:55 42.07771 24.84064 605 ft 0 kts 32°
2026-04-12 19:30 42.07767 24.84061 605 ft 2 kts 33°
2026-04-12 19:30 42.07752 24.84047 605 ft 3 kts 43°
2026-04-12 19:31 42.07739 24.84027 605 ft 3 kts 63°
2026-04-12 19:31 42.07734 24.84004 605 ft 3 kts 102°
2026-04-12 19:31 42.07738 24.83990 605 ft 0 kts 126°
2026-04-12 19:33 42.07732 24.83997 605 ft 3 kts 144°
2026-04-12 19:34 42.07693 24.84005 605 ft 6 kts 189°
2026-04-12 19:34 42.07662 24.83993 605 ft 6 kts 197°
2026-04-12 19:34 42.07593 24.83966 605 ft 13 kts 197°
2026-04-12 19:34 42.07540 24.83945 605 ft 3 kts 197°
2026-04-12 19:35 42.07537 24.83944 605 ft 0 kts 197°
2026-04-12 19:41 42.07533 24.83943 605 ft 3 kts 196°
2026-04-12 19:41 42.07490 24.83925 605 ft 10 kts 195°
2026-04-12 19:41 42.07407 24.83989 605 ft 26 kts 129°
2026-04-12 19:42 42.07174 24.84399 605 ft 85 kts 128°
2026-04-12 19:42 42.06699 24.85227 605 ft 137 kts 127°
2026-04-12 19:42 42.06041 24.86418 705 ft 173 kts 125°
2026-04-12 19:43 42.04522 24.89006 2090 ft 175 kts 131°
2026-04-12 19:43 42.03688 24.90208 2741 ft 180 kts 132°
2026-04-12 19:43 42.02808 24.91498 3194 ft 194 kts 129°
2026-04-12 19:43 42.01952 24.93006 3533 ft 213 kts 125°
2026-04-12 19:44 42.01100 24.94757 3800 ft 234 kts 121°
2026-04-12 19:44 42.00212 24.96675 4319 ft 242 kts 123°
2026-04-12 19:44 41.99241 24.98517 5191 ft 233 kts 130°
2026-04-12 19:44 41.98206 25.00122 6169 ft 227 kts 127°
2026-04-12 19:45 41.97440 25.01992 6579 ft 241 kts 105°
2026-04-12 19:45 41.97366 25.04305 6890 ft 259 kts 78°
2026-04-12 19:45 41.98090 25.06540 7486 ft 262 kts 54°
2026-04-12 19:45 41.99382 25.08236 8171 ft 264 kts 31°
2026-04-12 19:46 42.01106 25.09153 8714 ft 270 kts 10°
2026-04-12 19:46 42.02996 25.09175 9254 ft 276 kts 348°
2026-04-12 19:46 42.04746 25.08085 9812 ft 281 kts 322°
2026-04-12 19:46 42.06066 25.06159 9987 ft 281 kts 303°
2026-04-12 19:47 42.07059 25.03875 10177 ft 288 kts 302°
2026-04-12 19:47 42.08109 25.01562 10606 ft 300 kts 302°
2026-04-12 19:47 42.09220 24.99098 10900 ft 316 kts 302°
2026-04-12 19:47 42.10377 24.96517 11391 ft 325 kts 302°
2026-04-12 19:48 42.11541 24.93906 12140 ft 325 kts 303°
2026-04-12 19:48 42.12701 24.91297 12902 ft 326 kts 303°
2026-04-12 19:48 42.13870 24.88666 13600 ft 328 kts 303°
2026-04-12 19:48 42.15043 24.86026 14293 ft 330 kts 304°
2026-04-12 19:49 42.16222 24.83356 14994 ft 332 kts 304°
2026-04-12 19:49 42.17414 24.80677 15680 ft 335 kts 304°
2026-04-12 19:49 42.18597 24.78014 16345 ft 337 kts 304°
2026-04-12 19:49 42.19803 24.75293 17008 ft 339 kts 304°
2026-04-12 19:50 42.21013 24.72556 17635 ft 342 kts 304°
2026-04-12 19:50 42.22233 24.69791 18255 ft 344 kts 304°
2026-04-12 19:50 42.23330 24.66900 18840 ft 350 kts 298°
2026-04-12 19:50 42.24198 24.63812 19416 ft 355 kts 293°
2026-04-12 19:51 42.24920 24.60592 19944 ft 361 kts 290°
2026-04-12 19:51 42.25565 24.57312 20528 ft 363 kts 289°
2026-04-12 19:51 42.26198 24.53999 21034 ft 366 kts 289°
2026-04-12 19:51 42.26824 24.50700 21544 ft 369 kts 289°
2026-04-12 19:52 42.27464 24.47327 22022 ft 372 kts 289°
2026-04-12 19:52 42.28108 24.43932 22538 ft 374 kts 289°
2026-04-12 19:52 42.28756 24.40513 22999 ft 377 kts 289°
2026-04-12 19:52 42.29412 24.37067 23456 ft 379 kts 290°
2026-04-12 19:53 42.29465 24.36813 23493 ft 379 kts 291°
2026-04-12 19:53 42.30198 24.34416 23834 ft 375 kts 303°
2026-04-12 19:54 42.31783 24.31638 24240 ft 374 kts 318°
2026-04-12 19:54 42.33817 24.29437 24664 ft 376 kts 324°
2026-04-12 19:54 42.35960 24.27378 25087 ft 379 kts 325°
2026-04-12 19:54 42.38144 24.25369 25496 ft 381 kts 326°
2026-04-12 19:55 42.40361 24.23380 25892 ft 383 kts 326°
2026-04-12 19:55 42.42598 24.21398 26279 ft 386 kts 326°
2026-04-12 19:55 42.44851 24.19418 26691 ft 387 kts 327°
2026-04-12 19:55 42.47093 24.17460 27017 ft 390 kts 327°
2026-04-12 19:56 42.49380 24.15473 27363 ft 392 kts 327°
2026-04-12 19:56 42.51687 24.13475 27715 ft 394 kts 327°
2026-04-12 19:56 42.54003 24.11476 28047 ft 396 kts 327°
2026-04-12 19:56 42.56334 24.09467 28413 ft 397 kts 327°
2026-04-12 19:57 42.58674 24.07453 28731 ft 399 kts 327°
2026-04-12 19:57 42.61028 24.05442 29035 ft 401 kts 327°
2026-04-12 19:57 42.63391 24.03430 29417 ft 400 kts 327°
2026-04-12 19:57 42.65740 24.01427 29901 ft 397 kts 327°
2026-04-12 19:58 42.68047 23.99459 30325 ft 396 kts 327°
2026-04-12 19:58 42.70391 23.97457 30522 ft 400 kts 327°
2026-04-12 19:58 42.72743 23.95446 30867 ft 399 kts 327°
2026-04-12 19:58 42.75092 23.93435 31302 ft 397 kts 327°
2026-04-12 19:59 42.77417 23.91443 31704 ft 395 kts 327°
2026-04-12 19:59 42.79742 23.89449 32107 ft 393 kts 327°
2026-04-12 19:59 42.79950 23.89271 32137 ft 393 kts 327°
2026-04-12 20:00 42.81496 23.87952 32384 ft 392 kts 329°
2026-04-12 20:00 42.82999 23.86856 32608 ft 392 kts 332°
2026-04-12 20:00 42.83997 23.86130 32738 ft 392 kts 329°
2026-04-12 20:00 42.86335 23.84254 33061 ft 391 kts 327°
2026-04-12 20:01 42.87026 23.83662 33143 ft 391 kts 326°
2026-04-12 20:01 42.89325 23.81615 33270 ft 395 kts 326°
2026-04-12 20:01 42.91610 23.79556 33666 ft 392 kts 326°
2026-04-12 20:02 42.93880 23.77528 34056 ft 390 kts 326°
2026-04-12 20:02 42.96128 23.75533 34133 ft 391 kts 326°
2026-04-12 20:02 42.99618 23.72456 34143 ft 391 kts 326°
2026-04-12 20:03 43.01893 23.70458 34146 ft 388 kts 326°
2026-04-12 20:03 43.06426 23.66492 34148 ft 386 kts 326°
2026-04-12 20:04 43.10933 23.62557 34149 ft 387 kts 326°
2026-04-12 20:04 43.15470 23.58599 34150 ft 387 kts 326°
2026-04-12 20:05 43.20008 23.54639 34150 ft 387 kts 326°
2026-04-12 20:05 43.24545 23.50674 34151 ft 386 kts 326°
2026-04-12 20:06 43.29079 23.46708 34151 ft 386 kts 326°
2026-04-12 20:06 43.33579 23.42766 34153 ft 386 kts 326°
2026-04-12 20:07 43.38109 23.38790 34159 ft 386 kts 326°
2026-04-12 20:07 43.42641 23.34807 34152 ft 386 kts 326°
2026-04-12 20:08 43.47171 23.30819 34150 ft 387 kts 326°
2026-04-12 20:08 43.51713 23.26812 34151 ft 387 kts 326°
2026-04-12 20:09 43.56218 23.22832 34152 ft 387 kts 326°
2026-04-12 20:09 43.60750 23.18821 34154 ft 387 kts 326°
2026-04-12 20:10 43.65287 23.14797 34161 ft 388 kts 326°
2026-04-12 20:10 43.69831 23.10761 34161 ft 388 kts 326°
2026-04-12 20:11 43.74338 23.06751 34160 ft 388 kts 326°
2026-04-12 20:11 43.78884 23.02697 34161 ft 389 kts 326°
2026-04-12 20:12 43.83437 22.98629 34160 ft 389 kts 326°
2026-04-12 20:12 43.87991 22.94553 34160 ft 390 kts 326°
2026-04-12 20:13 43.92514 22.90498 34160 ft 390 kts 326°
2026-04-12 20:14 43.99366 22.84346 34159 ft 391 kts 326°
2026-04-12 20:14 44.03919 22.80240 34158 ft 390 kts 327°
2026-04-12 20:15 44.08495 22.76135 34158 ft 391 kts 327°
2026-04-12 20:15 44.13031 22.72038 34157 ft 391 kts 326°
2026-04-12 20:16 44.17598 22.67894 34156 ft 392 kts 326°
2026-04-12 20:16 44.22168 22.63737 34155 ft 392 kts 326°
2026-04-12 20:17 44.26735 22.59575 34154 ft 392 kts 326°
2026-04-12 20:17 44.31250 22.55277 34153 ft 393 kts 321°
2026-04-12 20:18 44.35333 22.50270 34150 ft 393 kts 318°
2026-04-12 20:18 44.39367 22.45121 34149 ft 393 kts 318°
2026-04-12 20:19 44.43401 22.39959 34147 ft 393 kts 318°
2026-04-12 20:19 44.47435 22.34785 34146 ft 394 kts 318°
2026-04-12 20:20 44.51448 22.29627 34142 ft 394 kts 318°
2026-04-12 20:20 44.55482 22.24434 34140 ft 394 kts 318°
2026-04-12 20:21 44.59523 22.19265 34138 ft 393 kts 318°
2026-04-12 20:21 44.63562 22.14091 34135 ft 393 kts 318°
2026-04-12 20:22 44.67594 22.08906 34133 ft 393 kts 318°
2026-04-12 20:22 44.71592 22.03749 34131 ft 393 kts 318°
2026-04-12 20:23 44.75615 21.98546 34127 ft 393 kts 318°
2026-04-12 20:23 44.79651 21.93314 34126 ft 395 kts 317°
2026-04-12 20:24 44.83690 21.88063 34122 ft 395 kts 318°
2026-04-12 20:24 44.87701 21.82840 34114 ft 395 kts 318°
2026-04-12 20:25 44.91730 21.77581 34113 ft 394 kts 318°
2026-04-12 20:25 44.95750 21.72323 34113 ft 394 kts 318°
2026-04-12 20:26 44.99773 21.67051 34112 ft 394 kts 318°
2026-04-12 20:26 45.03788 21.61780 34113 ft 394 kts 318°
2026-04-12 20:27 45.07776 21.56531 34112 ft 393 kts 318°
2026-04-12 20:27 45.11778 21.51257 34112 ft 393 kts 318°
2026-04-12 20:28 45.15780 21.45973 34112 ft 393 kts 318°
2026-04-12 20:28 45.19777 21.40678 34112 ft 393 kts 318°
2026-04-12 20:29 45.23746 21.35413 34112 ft 393 kts 318°
2026-04-12 20:29 45.27735 21.30112 34113 ft 393 kts 318°
2026-04-12 20:30 45.31728 21.24793 34113 ft 393 kts 318°
2026-04-12 20:30 45.35717 21.19469 34112 ft 393 kts 318°
2026-04-12 20:31 45.39694 21.14151 34113 ft 392 kts 318°
2026-04-12 20:31 45.43639 21.08864 34112 ft 392 kts 317°
2026-04-12 20:32 45.47607 21.03537 34113 ft 392 kts 317°
2026-04-12 20:32 45.51576 20.98197 34113 ft 392 kts 317°
2026-04-12 20:33 45.55540 20.92854 34115 ft 392 kts 318°
2026-04-12 20:33 45.57299 20.89905 34068 ft 397 kts 297°
2026-04-12 20:33 45.58548 20.86463 34094 ft 395 kts 307°
2026-04-12 20:34 45.60035 20.83932 34115 ft 393 kts 316°
2026-04-12 20:34 45.62819 20.80238 34112 ft 392 kts 321°
2026-04-12 20:35 45.63010 20.80007 34113 ft 392 kts 321°
2026-04-12 20:35 45.64325 20.78438 34113 ft 391 kts 321°
2026-04-12 20:36 45.68456 20.73441 34113 ft 392 kts 320°
2026-04-12 20:36 45.72680 20.68543 34113 ft 391 kts 323°
2026-04-12 20:37 45.76844 20.63540 34114 ft 390 kts 319°
2026-04-12 20:37 45.80846 20.58279 34121 ft 391 kts 318°
2026-04-12 20:38 45.84785 20.52988 34122 ft 390 kts 317°
2026-04-12 20:38 45.87139 20.49766 34125 ft 390 kts 318°
2026-04-12 20:39 45.88694 20.47658 34123 ft 391 kts 317°
2026-04-12 20:39 45.92630 20.42285 34124 ft 390 kts 317°
2026-04-12 20:40 45.96543 20.36953 34125 ft 390 kts 317°
2026-04-12 20:40 46.00456 20.31570 34126 ft 389 kts 317°
2026-04-12 20:41 46.04354 20.26172 34127 ft 388 kts 317°
2026-04-12 20:41 46.08245 20.20765 34122 ft 390 kts 317°
2026-04-12 20:42 46.12144 20.15337 34122 ft 389 kts 317°
2026-04-12 20:42 46.16010 20.09948 34123 ft 389 kts 317°
2026-04-12 20:43 46.19861 20.04451 34125 ft 389 kts 316°
2026-04-12 20:43 46.23698 19.98930 34127 ft 389 kts 316°
2026-04-12 20:44 46.27531 19.93400 34129 ft 389 kts 316°
2026-04-12 20:44 46.31360 19.87860 34130 ft 389 kts 316°
2026-04-12 20:45 46.35156 19.82353 34131 ft 389 kts 316°
2026-04-12 20:45 46.38979 19.76796 34132 ft 389 kts 316°
2026-04-12 20:46 46.42810 19.71255 34132 ft 389 kts 316°
2026-04-12 20:46 46.46643 19.65721 34133 ft 389 kts 316°
2026-04-12 20:47 46.50439 19.60216 34134 ft 388 kts 315°
2026-04-12 20:47 46.54252 19.54666 34135 ft 388 kts 315°
2026-04-12 20:48 46.58057 19.49110 34136 ft 388 kts 315°
2026-04-12 20:48 46.61861 19.43541 34136 ft 388 kts 315°
2026-04-12 20:49 46.65659 19.37966 34137 ft 388 kts 315°
2026-04-12 20:49 46.69433 19.32414 34138 ft 388 kts 315°
2026-04-12 20:50 46.73223 19.26825 34138 ft 388 kts 315°
2026-04-12 20:50 46.77012 19.21226 34136 ft 388 kts 315°
2026-04-12 20:51 46.80801 19.15615 34135 ft 388 kts 315°
2026-04-12 20:51 46.84556 19.10041 34130 ft 388 kts 315°
2026-04-12 20:52 46.88341 19.04413 34131 ft 388 kts 314°
2026-04-12 20:52 46.92118 18.98783 34131 ft 388 kts 314°
2026-04-12 20:53 46.95892 18.93145 34136 ft 388 kts 314°
2026-04-12 20:53 46.99641 18.87532 34135 ft 388 kts 314°
2026-04-12 20:54 47.03408 18.81882 34135 ft 388 kts 314°
2026-04-12 20:54 47.07177 18.76216 34134 ft 388 kts 314°
2026-04-12 20:55 47.10941 18.70544 34134 ft 388 kts 314°
2026-04-12 20:55 47.14701 18.64867 34133 ft 388 kts 314°
2026-04-12 20:56 47.18433 18.59221 34132 ft 388 kts 314°
2026-04-12 20:56 47.22187 18.53528 34130 ft 388 kts 313°
2026-04-12 20:57 47.25941 18.47830 34130 ft 388 kts 313°
2026-04-12 20:57 47.29689 18.42119 34127 ft 388 kts 313°
2026-04-12 20:58 47.33412 18.36435 34125 ft 388 kts 313°
2026-04-12 20:58 47.37154 18.30710 34120 ft 388 kts 313°
2026-04-12 20:59 47.40898 18.24968 34111 ft 388 kts 313°
2026-04-12 20:59 47.44634 18.19229 34108 ft 387 kts 313°
2026-04-12 21:00 47.48360 18.13492 34108 ft 387 kts 313°
2026-04-12 21:00 47.52061 18.07781 34108 ft 387 kts 312°
2026-04-12 21:01 47.55783 18.02025 34109 ft 387 kts 312°
2026-04-12 21:01 47.59521 17.96279 34110 ft 388 kts 312°
2026-04-12 21:02 47.63258 17.90487 34111 ft 389 kts 312°
2026-04-12 21:02 47.66980 17.84682 34112 ft 388 kts 312°
2026-04-12 21:03 47.70674 17.78900 34111 ft 388 kts 311°
2026-04-12 21:03 47.74391 17.73070 34109 ft 389 kts 311°
2026-04-12 21:04 47.76408 17.69892 34108 ft 389 kts 311°
2026-04-12 21:04 47.78334 17.66877 34106 ft 388 kts 311°
2026-04-12 21:05 47.81989 17.61032 34103 ft 388 kts 311°
2026-04-12 21:05 47.85659 17.55120 34100 ft 390 kts 311°
2026-04-12 21:06 47.89333 17.49180 34097 ft 390 kts 311°
2026-04-12 21:06 47.93005 17.43227 34095 ft 391 kts 311°
2026-04-12 21:07 47.96684 17.37247 34091 ft 392 kts 310°
2026-04-12 21:07 48.00343 17.31285 34088 ft 392 kts 310°
2026-04-12 21:08 48.04033 17.25311 34085 ft 390 kts 310°
2026-04-12 21:08 48.07583 17.19569 34083 ft 391 kts 310°
2026-04-12 21:09 48.11272 17.13574 34082 ft 392 kts 310°
2026-04-12 21:09 48.14959 17.07559 34081 ft 393 kts 310°
2026-04-12 21:10 48.18625 17.01556 34080 ft 393 kts 310°
2026-04-12 21:10 48.22324 16.95483 34077 ft 395 kts 310°
2026-04-12 21:11 48.26024 16.89393 34073 ft 396 kts 310°
2026-04-12 21:11 48.29733 16.83269 34070 ft 396 kts 309°
2026-04-12 21:12 48.33422 16.77167 34069 ft 398 kts 309°
2026-04-12 21:12 48.37134 16.71009 34067 ft 398 kts 309°
2026-04-12 21:13 48.40850 16.64831 34064 ft 399 kts 309°
2026-04-12 21:13 48.44571 16.58629 34063 ft 399 kts 309°
2026-04-12 21:14 48.48293 16.52412 34059 ft 400 kts 309°
2026-04-12 21:14 48.51993 16.46217 34059 ft 400 kts 309°
2026-04-12 21:15 48.55712 16.39974 34060 ft 400 kts 309°
2026-04-12 21:15 48.59433 16.33714 34061 ft 400 kts 309°
2026-04-12 21:16 48.63149 16.27446 34062 ft 400 kts 309°
2026-04-12 21:16 48.66862 16.21170 34062 ft 400 kts 309°
2026-04-12 21:17 48.70547 16.14924 34062 ft 400 kts 309°
2026-04-12 21:17 48.74246 16.08641 34058 ft 400 kts 309°
2026-04-12 21:18 48.77941 16.02351 34055 ft 400 kts 309°
2026-04-12 21:18 48.81597 15.96112 34053 ft 401 kts 308°
2026-04-12 21:19 48.85316 15.89748 34050 ft 404 kts 308°
2026-04-12 21:19 48.89011 15.83410 34050 ft 403 kts 308°
2026-04-12 21:20 48.92728 15.77020 34050 ft 402 kts 308°
2026-04-12 21:20 48.96431 15.70637 34049 ft 402 kts 308°
2026-04-12 21:21 49.00131 15.64246 34049 ft 402 kts 308°
2026-04-12 21:21 49.03827 15.57866 34049 ft 402 kts 308°
2026-04-12 21:22 49.07506 15.51525 34048 ft 402 kts 308°
2026-04-12 21:22 49.11191 15.45113 34048 ft 402 kts 307°
2026-04-12 21:23 49.14861 15.38691 34049 ft 401 kts 307°
2026-04-12 21:23 49.18525 15.32260 34054 ft 401 kts 307°
2026-04-12 21:24 49.22193 15.25814 34055 ft 402 kts 307°
2026-04-12 21:24 49.25877 15.19465 34055 ft 403 kts 309°
2026-04-12 21:25 49.29779 15.13287 34057 ft 404 kts 310°
2026-04-12 21:25 49.33682 15.07103 34058 ft 404 kts 309°
2026-04-12 21:26 49.37580 15.00888 34059 ft 404 kts 309°
2026-04-12 21:26 49.43378 14.91590 34062 ft 404 kts 309°
2026-04-12 21:27 49.47258 14.85340 34063 ft 402 kts 309°
2026-04-12 21:27 49.51098 14.79215 34064 ft 394 kts 309°
2026-04-12 21:28 49.54883 14.73156 33902 ft 391 kts 309°
2026-04-12 21:28 49.56743 14.70169 33639 ft 383 kts 309°
2026-04-12 21:28 49.58547 14.67261 33270 ft 379 kts 309°
2026-04-12 21:29 49.60359 14.64335 32869 ft 376 kts 308°
2026-04-12 21:29 49.62163 14.61417 32465 ft 374 kts 308°
2026-04-12 21:29 49.63952 14.58519 32065 ft 372 kts 308°
2026-04-12 21:29 49.65727 14.55640 31670 ft 370 kts 308°
2026-04-12 21:30 49.67493 14.52770 31277 ft 368 kts 308°
2026-04-12 21:30 49.69251 14.49910 30884 ft 366 kts 308°
2026-04-12 21:30 49.70999 14.47063 30496 ft 365 kts 308°
2026-04-12 21:30 49.72740 14.44224 30112 ft 363 kts 308°
2026-04-12 21:31 49.74450 14.41431 29741 ft 361 kts 309°
2026-04-12 21:31 49.76175 14.38611 29359 ft 360 kts 309°
2026-04-12 21:31 49.77891 14.35802 28977 ft 358 kts 309°
2026-04-12 21:31 49.79594 14.33011 28597 ft 357 kts 309°
2026-04-12 21:32 49.81292 14.30226 28219 ft 355 kts 309°
2026-04-12 21:32 49.82982 14.27450 27840 ft 353 kts 309°
2026-04-12 21:32 49.84665 14.24683 27461 ft 352 kts 309°
2026-04-12 21:32 49.86338 14.21928 27082 ft 350 kts 309°
2026-04-12 21:33 49.88004 14.19182 26705 ft 349 kts 309°
2026-04-12 21:33 49.89662 14.16447 26331 ft 347 kts 309°
2026-04-12 21:33 49.91312 14.13722 25956 ft 346 kts 309°
2026-04-12 21:33 49.92953 14.11010 25585 ft 344 kts 309°
2026-04-12 21:34 49.94567 14.08338 25219 ft 343 kts 309°
2026-04-12 21:34 49.96193 14.05643 24849 ft 341 kts 309°
2026-04-12 21:34 49.97813 14.02957 24482 ft 340 kts 309°
2026-04-12 21:34 49.99425 14.00280 24114 ft 339 kts 310°
2026-04-12 21:35 50.01032 13.97609 23748 ft 337 kts 310°
2026-04-12 21:35 50.02629 13.94952 23382 ft 336 kts 309°
2026-04-12 21:35 50.04223 13.92297 23021 ft 335 kts 309°
2026-04-12 21:35 50.05810 13.89653 22668 ft 333 kts 309°
2026-04-12 21:36 50.07386 13.87023 22303 ft 332 kts 309°
2026-04-12 21:36 50.08938 13.84429 21945 ft 331 kts 309°
2026-04-12 21:36 50.09995 13.82661 21702 ft 330 kts 309°
2026-04-12 21:36 50.12060 13.79205 21232 ft 328 kts 309°
2026-04-12 21:37 50.13615 13.76597 20876 ft 327 kts 309°
2026-04-12 21:37 50.15162 13.74002 20523 ft 326 kts 308°
2026-04-12 21:37 50.16699 13.71420 20173 ft 325 kts 308°
2026-04-12 21:37 50.18234 13.68841 19824 ft 324 kts 308°
2026-04-12 21:38 50.19761 13.66271 19477 ft 322 kts 308°
2026-04-12 21:38 50.20771 13.64569 19248 ft 322 kts 308°
2026-04-12 21:38 50.22287 13.62014 18906 ft 320 kts 308°
2026-04-12 21:38 50.24288 13.58636 18453 ft 319 kts 308°
2026-04-12 21:39 50.25788 13.56102 18115 ft 318 kts 308°
2026-04-12 21:39 50.27286 13.53567 17776 ft 316 kts 308°
2026-04-12 21:39 50.28776 13.51049 17440 ft 315 kts 308°
2026-04-12 21:39 50.29767 13.49394 17218 ft 314 kts 308°
2026-04-12 21:40 50.31255 13.46892 16882 ft 313 kts 308°
2026-04-12 21:40 50.32733 13.44396 16549 ft 312 kts 308°
2026-04-12 21:40 50.34203 13.41907 16219 ft 311 kts 308°
2026-04-12 21:40 50.35664 13.39421 15889 ft 310 kts 308°
2026-04-12 21:41 50.37119 13.36941 15562 ft 309 kts 308°
2026-04-12 21:41 50.38568 13.34464 15235 ft 307 kts 308°
2026-04-12 21:41 50.40009 13.31999 14911 ft 306 kts 308°
2026-04-12 21:41 50.41446 13.29537 14587 ft 306 kts 308°
2026-04-12 21:42 50.42876 13.27084 14266 ft 305 kts 308°
2026-04-12 21:42 50.44286 13.24665 13954 ft 304 kts 308°
2026-04-12 21:42 50.45710 13.22220 13633 ft 303 kts 308°
2026-04-12 21:42 50.47137 13.19777 13314 ft 303 kts 308°
2026-04-12 21:43 50.48550 13.17338 12999 ft 302 kts 309°
2026-04-12 21:43 50.49934 13.14868 12682 ft 299 kts 304°
2026-04-12 21:43 50.51037 13.12124 12371 ft 297 kts 296°
2026-04-12 21:43 50.52026 13.09261 12059 ft 299 kts 295°
2026-04-12 21:44 50.52991 13.06365 11743 ft 298 kts 295°
2026-04-12 21:44 50.53935 13.03514 11434 ft 297 kts 295°
2026-04-12 21:44 50.54886 13.00629 11119 ft 297 kts 295°
2026-04-12 21:44 50.55830 12.97752 10810 ft 296 kts 295°
2026-04-12 21:45 50.56779 12.94857 10536 ft 299 kts 295°
2026-04-12 21:45 50.57718 12.91979 10350 ft 290 kts 295°
2026-04-12 21:45 50.58625 12.89196 10180 ft 282 kts 295°
2026-04-12 21:45 50.59510 12.86475 9962 ft 279 kts 295°
2026-04-12 21:46 50.60393 12.83754 9631 ft 278 kts 295°
2026-04-12 21:46 50.61267 12.81057 9336 ft 276 kts 295°
2026-04-12 21:46 50.62128 12.78396 9047 ft 276 kts 296°
2026-04-12 21:46 50.63000 12.75702 8754 ft 276 kts 296°
2026-04-12 21:47 50.63867 12.73015 8462 ft 275 kts 296°
2026-04-12 21:47 50.64743 12.70352 8171 ft 274 kts 297°
2026-04-12 21:47 50.65630 12.67701 7879 ft 273 kts 297°
2026-04-12 21:47 50.66504 12.65061 7588 ft 271 kts 297°
2026-04-12 21:48 50.67371 12.62417 7296 ft 271 kts 297°
2026-04-12 21:48 50.68229 12.59783 7005 ft 269 kts 297°
2026-04-12 21:48 50.69080 12.57156 6712 ft 268 kts 297°
2026-04-12 21:48 50.69910 12.54579 6427 ft 267 kts 297°
2026-04-12 21:49 50.70748 12.51971 6136 ft 267 kts 297°
2026-04-12 21:49 50.71583 12.49364 5850 ft 266 kts 297°
2026-04-12 21:49 50.72416 12.46756 5560 ft 265 kts 297°
2026-04-12 21:49 50.73241 12.44168 5277 ft 263 kts 297°
2026-04-12 21:50 50.74058 12.41604 4994 ft 260 kts 297°
2026-04-12 21:50 50.74869 12.39055 4750 ft 258 kts 297°
2026-04-12 21:50 50.75662 12.36558 4596 ft 250 kts 297°
2026-04-12 21:50 50.76423 12.34163 4451 ft 238 kts 297°
2026-04-12 21:51 50.77142 12.31900 4320 ft 230 kts 297°
2026-04-12 21:51 50.77837 12.29713 4216 ft 217 kts 297°
2026-04-12 21:51 50.78766 12.27939 4045 ft 208 kts 331°
2026-04-12 21:51 50.80138 12.27613 3976 ft 201 kts 13°
2026-04-12 21:52 50.81354 12.28565 4035 ft 192 kts 34°
2026-04-12 21:52 50.82367 12.29886 4042 ft 186 kts 41°
2026-04-12 21:52 50.83337 12.31221 4013 ft 183 kts 40°
2026-04-12 21:52 50.84305 12.32507 4016 ft 182 kts 40°
2026-04-12 21:53 50.85292 12.33804 3829 ft 187 kts 40°
2026-04-12 21:53 50.86291 12.35112 3566 ft 183 kts 40°
2026-04-12 21:53 50.87229 12.36338 3318 ft 171 kts 40°
2026-04-12 21:53 50.88114 12.37495 3114 ft 159 kts 40°
2026-04-12 21:54 50.88933 12.38565 2923 ft 147 kts 40°
2026-04-12 21:54 50.89707 12.39576 2710 ft 144 kts 39°
2026-04-12 21:54 50.90491 12.40600 2521 ft 147 kts 40°
2026-04-12 21:54 50.91292 12.41647 2325 ft 149 kts 40°
2026-04-12 21:55 50.92081 12.42678 2117 ft 146 kts 39°
2026-04-12 21:55 50.92855 12.43688 1922 ft 143 kts 39°
2026-04-12 21:55 50.93616 12.44681 1734 ft 141 kts 39°
2026-04-12 21:55 50.94360 12.45653 1550 ft 140 kts 39°
2026-04-12 21:56 50.95111 12.46634 1363 ft 140 kts 39°
2026-04-12 21:56 50.95861 12.47613 1176 ft 139 kts 39°
2026-04-12 21:56 50.96609 12.48592 943 ft 140 kts 39°
2026-04-12 21:56 50.97362 12.49543 735 ft 138 kts 44°
2026-04-12 21:57 50.98094 12.50518 651 ft 133 kts 45°
2026-04-12 21:57 50.98712 12.51329 648 ft 75 kts 43°
2026-04-12 21:57 50.98914 12.51629 648 ft 13 kts 64°
2026-04-12 21:57 50.98895 12.51694 648 ft 6 kts 131°
2026-04-12 21:58 50.98842 12.51760 648 ft 9 kts 149°
2026-04-12 21:58 50.98792 12.51758 648 ft 9 kts 207°
2026-04-12 21:58 50.98731 12.51687 648 ft 14 kts 218°
2026-04-12 21:58 50.98657 12.51589 648 ft 13 kts 219°
2026-04-12 21:59 50.98598 12.51517 648 ft 9 kts 217°
2026-04-12 21:59 50.98522 12.51428 648 ft 17 kts 204°
2026-04-12 21:59 50.98402 12.51415 648 ft 18 kts 179°
2026-04-12 21:59 50.98281 12.51413 648 ft 18 kts 182°
2026-04-12 22:00 50.98165 12.51329 648 ft 18 kts 229°
2026-04-12 22:00 50.98082 12.51188 648 ft 18 kts 225°
2026-04-12 22:00 50.98010 12.51075 648 ft 7 kts 199°
2026-04-12 22:00 50.97977 12.51089 648 ft 3 kts 143°
2026-04-12 22:01 50.97969 12.51099 648 ft 0 kts 138°